Regional Weather Roundup
Issued by NWS Cleveland, OH

Home | Current Version | Previous Version | Graphics & Text | Print | Product List | Glossary On
Versions: 1 2 3 4 5 6 7 8 9 10 11 12 13 14 15 16 17 18 19 20 21 22 23 24 25 26 27 28 29 30 31 32 33 34 35 36 37 38 39 40 41 42 43 44 45 46 47 48 49 50
000
ASUS41 KCLE 281210
RWRCLE
OHIO REGIONAL WEATHER ROUNDUP
NATIONAL WEATHER SERVICE WILMINGTON, OH
800 AM EDT SAT MAR 28 2015

NOTE: "FAIR" INDICATES FEW OR NO CLOUDS BELOW 12,000 FEET WITH NO
SIGNIFICANT WEATHER AND/OR OBSTRUCTIONS TO VISIBILITY.

OHZ001>008-015>018-024>027-034-035-043-044-281300-
   NORTHWEST OHIO

CITY           SKY/WX    TMP DP  RH WIND       PRES   REMARKS
DEFIANCE       CLEAR     16   8  71 N5        30.26R WCI   9
FINDLAY        MOCLDY    16   8  71 NW6       30.22R WCI   7
TOLEDO EXPRESS CLEAR     15   6  67 NW6       30.24R WCI   6
TOLEDO EXEC    MOCLDY    19   5  54 N10       30.24R WCI   7
LIMA           CLEAR     18   8  65 N6        30.22R WCI  10
$$

OHZ009>014-019>023-028>033-038-089-281300-
   NORTHEAST OHIO

CITY           SKY/WX    TMP DP  RH WIND       PRES   REMARKS
CLE-HOPKINS    MOCLDY    18   8  65 N12       30.19R WCI   5
CLE-LAKEFRONT  PTCLDY    19   8  62 NW13      30.18R WCI   6
CUY CO. ARPT   CLEAR     19   7  58 N15G22    30.15R WCI   5
LORAIN-ELYRIA  CLOUDY    19  10  68 N12       30.18R WCI   7
ASHTABULA      CLEAR     14   6  70 N6        30.13R WCI   5
AKRON-CANTON   CLOUDY    16   8  71 NW8       30.11R WCI   5
WOOSTER        PTCLDY    15   8  73 NW8       30.15R WCI   4
MANSFIELD      CLOUDY    11   8  88 NW6       30.15R FOG     WCI   1
YOUNGSTOWN     PTCLDY    12   7  80 NW5       30.09R WCI   4
$$

OHZ042-051>053-060>062-070>072-077>081-281300-
  SOUTHWEST OHIO

CITY           SKY/WX    TMP DP  RH WIND       PRES   REMARKS
CINC-COVINGTON CLEAR     20  14  77 N7        30.20R WCI  11
CINC-LUNKEN    CLEAR     21  15  78 CALM      30.24R
HAMILTON       CLEAR     19  15  84 NW3       30.23R
DAYTON         PTCLDY    20  15  81 N8        30.22R WCI  10
WRIGHT-PAT AFB CLEAR     20  14  80 N8        30.21R WCI  10
DAYTON GENERAL CLEAR     19  14  81 N6        30.19R WCI  11
WILMINGTON     CLEAR     19  13  77 N6        30.18R WCI  11
$$

OHZ036-037-039>041-045>050-054>059-063>069-073>076-082>088-281300-
  CENTRAL AND SOUTHEAST OHIO

CITY           SKY/WX    TMP DP  RH WIND       PRES   REMARKS
COLUMBUS       PTCLDY    17   9  70 N8        30.20R WCI   7
OSU AIRPORT    PTCLDY    17   8  67 NW8       30.20R WCI   7
BOLTON FIELD   NOT AVBL
RICKENBACK AFB CLEAR     18   8  65 N8        30.21R WCI   8
NEWARK         CLEAR     16   8  71 NW8       30.18R WCI   5
MARION         CLEAR     14   7  73 NW8       30.20R WCI   3
LANCASTER      CLEAR     19  11  70 N6        30.19R WCI  11
ZANESVILLE     MOCLDY    15   6  67 NW7       30.17R WCI   5
NEW PHILLY     CLEAR     18   7  62 NW7       30.16R WCI   9
$$


USA.gov is the U.S. government's official web portal to all federal, state and local government web resources and services.